Regional Weather Roundup
Issued by NWS Memphis, TN

Home | Current Version | Previous Version | Text Only | Print | Product List | Glossary On
Versions: 1 2 3 4 5 6 7 8 9 10 11 12 13 14 15 16 17 18 19 20 21 22 23 24 25 26 27 28 29 30 31 32 33 34 35 36 37 38 39 40 41 42 43 44 45 46 47 48 49 50
000
ASUS44 KMEG 040500
RWRMEG
MEMPHIS CWA HOURLY WEATHER ROUNDUP
NATIONAL WEATHER SERVICE MEMPHIS TN
1200 AM CDT MON MAY 04 2015

...WEST TENNESSEE...

CITY           SKY/WX    TMP DP  RH WIND       PRES   REMARKS
MEMPHIS INTL   PTCLDY    68  51  54 S6        30.07F
NWS MEMPHIS      N/A    N/A N/A N/A MISG        N/A
JACKSON        CLEAR     61  50  67 S6        30.09F
LEXINGTON      CLEAR     55  54  94 CALM      30.10F
DYERSBURG      FAIR      66  43  42 S6        30.08F
PARIS          CLEAR     61  48  63 S7        30.09F


...EASTERN ARKANSAS...

CITY           SKY/WX    TMP DP  RH WIND       PRES   REMARKS
JONESBORO      CLEAR     66  53  63 S7        30.04F
WEST MEMPHIS   CLEAR     63  55  75 S6        30.05F
BATESVILLE     CLEAR     66  55  68 S3        30.03F
WALNUT RIDGE   CLEAR     64  52  63 S9        30.02F
BLYTHEVILLE    CLEAR     67  51  56 S8        30.05F
SEARCY         CLEAR     61  58  90 CALM      30.05F
STUTTGART      CLEAR     70  55  60 S8        30.05F
PINE BLUFF     CLEAR     64  58  80 S6        30.05F
MONTICELLO     CLEAR     70  55  59 S6        30.06F


...NORTH MISSISSIPPI...

CITY           SKY/WX    TMP DP  RH WIND       PRES   REMARKS
TUPELO         PTCLDY    66  53  63 CALM      30.12S
OLIVE BRANCH   PTCLDY    64  52  63 S7        30.09S
TUNICA         CLEAR     64  55  72 SE9       30.08S
GREENWOOD      CLEAR     65  56  72 S6        30.10R
COLUMBUS       MOCLDY    62  54  74 SE3       30.13R
STARKVILLE     FAIR      61  54  77 CALM      30.13S
GOLDEN TRIANGL CLOUDY    64  54  68 SE6       30.13S


...SOUTHEAST MISSOURI...

CITY           SKY/WX    TMP DP  RH WIND       PRES   REMARKS
WEST PLAINS    CLEAR     68  52  56 S7        30.03S
POPLAR BLUFF   CLEAR     65  53  65 S5        30.01F
CAPE GIRARDEAU PTCLDY    68  48  48 S12       30.02F


...NORTHWEST ALABAMA...

CITY           SKY/WX    TMP DP  RH WIND       PRES   REMARKS
MUSCLE SHOALS  CLEAR     58  51  78 SE3       30.15S


...MIDDLE TENNESSEE...

CITY           SKY/WX    TMP DP  RH WIND       PRES   REMARKS
NASHVILLE      PTCLDY    59  51  75 S5        30.13F
CLARKSVILLE    CLEAR     60  50  69 S3        30.10F
COLUMBIA       CLEAR     55  52  88 S3        30.13S


...WESTERN KENTUCKY...

CITY           SKY/WX    TMP DP  RH WIND       PRES   REMARKS
PADUCAH        PTCLDY    66  48  52 S7        30.04F


...CENTRAL ARKANSAS...

CITY           SKY/WX    TMP DP  RH WIND       PRES   REMARKS
LITTLE ROCK    PTCLDY    67  57  70 S7        30.04S


SKY/WX REPORTED AS FAIR MEANS FEW OR NO CLOUDS BELOW
12 THOUSAND FEET.



USA.gov is the U.S. government's official web portal to all federal, state and local government web resources and services.